Weather History for KP53 - January, 2012

Change the Weather History Date:

Monday, January 23, 2012

  Actual Average (KISQ) Record (KISQ)
Temperature  
Mean Temperature 30 °F -  
Max Temperature 34 °F 29 °F 45 °F (1967)
Min Temperature 26 °F 11 °F -24 °F (1963)
Degree Days  
Heating Degree Days 34    
Moisture  
Dew Point 30 °F    
Average Humidity 91    
Maximum Humidity 100    
Minimum Humidity 82    
Precipitation  
Precipitation 0.52 in - - ()
Sea Level Pressure  
Sea Level Pressure 29.42 in    
Wind  
Wind Speed 8 mph (NW)    
Max Wind Speed 18 mph    
Max Gust Speed 26 mph    
Averages and records for this station are not official NWS values.
T = Trace of Precipitation, MM = Missing Value Source: NWS Daily Summary

Daily Weather History Graph

Daily Weather History Graph

Search for Another Location

Airport or City:

Trip Planner

Search our weather history database for the weather conditions in past years. The results will help you decide how hot, cold, wet, or windy it might be!

Date:

Astronomy

Jan. 23, 2012 Rise Set
Actual Time 8:20 AM EST 5:37 PM EST
Civil Twilight 7:47 AM EST 6:10 PM EST
Nautical Twilight 7:10 AM EST 6:46 PM EST
Astronomical Twilight 6:34 AM EST 7:22 PM EST
Moon 8:11 AM EST (1/23) 6:29 PM EST (1/23)
Length of Visible Light 10h 23m
Length of Day
9h 16m
New Moon, 0% of the Moon is Illuminated
Jan 23
New Moon
Jan 30
First Quarter
Feb 7
Full
Feb 14
Last Quarter
Feb 21
New

Hourly Weather History & Observations

Time (EST) Temp. Windchill Dew Point Humidity Pressure Visibility Wind Dir Wind Speed Gust Speed Precip Events Conditions
12:56 AM 32.0 °F 27.5 °F 30.0 °F 92% 29.64 in - Variable 4.6 mph - N/A   Unknown
1:56 AM 30.9 °F 22.8 °F 28.9 °F 92% 29.63 in - South 9.2 mph - N/A   Unknown
2:56 AM 32.0 °F 23.0 °F 30.0 °F 92% 29.60 in - SE 11.5 mph 17.3 mph N/A   Unknown
3:56 AM 30.9 °F 21.7 °F 28.9 °F 92% 29.54 in - SE 11.5 mph 20.7 mph N/A   Unknown
4:56 AM 30.9 °F 23.5 °F 28.9 °F 92% 29.53 in - South 8.1 mph - 0.01 in   Unknown
5:56 AM 32.0 °F 27.5 °F 28.9 °F 88% 29.44 in - Variable 4.6 mph - 0.03 in   Unknown
6:56 AM 32.0 °F - 30.9 °F 96% 29.40 in - Calm Calm - 0.10 in   Unknown
7:56 AM 32.0 °F 23.6 °F 32.0 °F 100% 29.33 in - NNE 10.4 mph - 0.14 in   Unknown
8:56 AM 32.0 °F 27.5 °F 30.9 °F 96% 29.34 in - NNW 4.6 mph - 0.06 in   Unknown
9:56 AM 33.1 °F 30.0 °F 30.9 °F 92% 29.30 in - North 3.5 mph - 0.05 in   Unknown
10:56 AM 33.1 °F 28.7 °F 30.9 °F 92% 29.29 in - NW 4.6 mph - 0.01 in   Unknown
11:56 AM 33.1 °F 30.0 °F 32.0 °F 96% 29.27 in - WNW 3.5 mph - N/A   Unknown
12:56 PM 34.0 °F 29.8 °F 32.0 °F 92% 29.24 in - NW 4.6 mph - N/A   Unknown
1:56 PM 34.0 °F 28.0 °F 32.0 °F 92% 29.23 in - Variable 6.9 mph - 0.01 in   Unknown
2:56 PM 34.0 °F 28.0 °F 32.0 °F 92% 29.23 in - WNW 6.9 mph - 0.01 in   Unknown
3:56 PM 34.0 °F 26.6 °F 32.0 °F 92% 29.26 in - NW 9.2 mph - 0.04 in   Unknown
4:56 PM 34.0 °F 25.5 °F 32.0 °F 92% 29.31 in - WNW 11.5 mph - 0.03 in   Unknown
5:56 PM 34.0 °F 23.8 °F 30.9 °F 89% 29.36 in - NW 16.1 mph 24.2 mph N/A   Unknown
6:56 PM 33.1 °F 22.6 °F 30.0 °F 89% 29.41 in - NW 16.1 mph 20.7 mph 0.01 in   Unknown
7:56 PM 32.0 °F 23.6 °F 28.9 °F 88% 29.45 in - NW 10.4 mph 25.3 mph N/A   Unknown
8:56 PM 30.0 °F 19.1 °F 27.0 °F 88% 29.49 in - NW 15.0 mph 21.9 mph N/A   Unknown
9:56 PM 28.9 °F 20.4 °F 24.1 °F 82% 29.53 in - NW 9.2 mph 19.6 mph N/A   Unknown
10:56 PM 27.0 °F 13.9 °F 23.0 °F 85% 29.57 in - NNW 18.4 mph 26.5 mph N/A   Unknown
11:56 PM 26.1 °F 15.0 °F 23.0 °F 88% 29.61 in - NNW 12.7 mph - 0.02 in   Unknown